sat.trackr.live / text

‹ back to catalog

STARLINK-2145

NORAD 48555 · 2021-041C

PAYLOAD ACTIVE UNKNOWN

§ Identity

Operator
Country
US
Launch date
2021-05-15
Launch site
AFETR
Launch vehicle
Mass (kg)
RCS (m²)

Purposes: comms

External: N2YO · Heavens-Above · Gunter

§ Orbital elements

Epoch: 2026-09-14T00:07:52.127616Z

Period
94.01 min
Inclination
53.1610°
Eccentricity
0.0001266
Mean motion
15.31720257 rev/d
Perigee alt
469.8 km
Apogee alt
471.5 km
Semi-major
6,848.8 km
B*
1.6729e-4
RAAN
352.5699°
Arg perigee
89.9080°
Mean anomaly
270.2067°
Rev number
29,380

§ Raw data

STARLINK-21451 48555U 21041C   26257.00546444  .00004833  00000+0  16729-3 0  99992 48555  53.1610 352.5699 0001266  89.9080 270.2067 15.31720257293802

JSON: /api/v1/satellites/48555 · /tle

For live sub-satellite position, see the globe view (requires WebGL).

§ Visibility from observer

Set your observer location to see the next 7 days of passes ≥ 10°. The values pass through the URL so the page stays shareable.

No JS? Fill the form by hand. The geolocation button needs JavaScript.